Regional Weather Roundup
Issued by NWS

Home | Current Version | Previous Version | Graphics & Text | Print | Product List | Glossary On
Versions: 1 2 3 4 5 6 7 8 9 10 11 12 13 14 15 16 17 18 19 20 21 22 23 24 25 26 27 28 29 30 31 32 33 34 35 36 37 38 39 40 41 42 43 44 45 46 47 48 49 50
391
ASUS43 KLMK 140002
RWRKY
KENTUCKY REGIONAL WEATHER ROUNDUP
NATIONAL WEATHER SERVICE LOUISVILLE KY
700 PM EST WED DEC 13 2017

NOTE "FAIR" INDICATES FEW OR NO CLOUDS BELOW 12,000 FEET
WITH NO SIGNIFICANT WEATHER AND/OR OBSTRUCTIONS TO VISIBILITY.

KYZ001>023-026-027-061>063-070>075-140100-
WESTERN AND SOUTH CENTRAL KENTUCKY

CITY           SKY/WX    TMP DP  RH WIND       PRES   REMARKS
PADUCAH        CLEAR     49  25  39 SW13      29.69R
HENDERSON      PTCLDY    45  28  51 SW16      29.63R
OWENSBORO      MOCLDY    46  27  47 SW12G18   29.63R
HOPKINSVILLE   CLEAR     47  23  38 SW15      29.69R
BOWLING GREEN  CLEAR     45  21  38 SW9       29.69R
GLASGOW        NOT AVBL
$$

KYZ024-025-028>034-038-045-046-053-140100-
NORTH CENTRAL KENTUCKY

CITY           SKY/WX    TMP DP  RH WIND       PRES   REMARKS
LOUISVILLE/SDF CLOUDY    48  22  35 SW15G22   29.56S
LOUISVILLE/LOU CLOUDY    47  23  38 SW16G25   29.57S
FORT KNOX      CLOUDY    46  21  38 SW15G22   29.57R
$$

KYZ035>037-039>044-047>052-055>060-089>105-140100-
NORTHEAST KENTUCKY

CITY           SKY/WX    TMP DP  RH WIND       PRES   REMARKS
LEXINGTON      CLOUDY    43  16  33 SW23G39   29.56R
COVINGTON      CLOUDY    40  18  41 SW13      29.45F WCI  32
FRANKFORT      CLOUDY    44  15  31 SW21G30   29.55R
$$

KYZ054-064>069-076>088-106>120-140100-
SOUTHEAST KENTUCKY

CITY           SKY/WX    TMP DP  RH WIND       PRES   REMARKS
JACKSON        CLEAR     38   9  30 VRB6G24   29.59R WCI  33
LONDON         CLEAR     40  10  29 SW14G23   29.66R WCI  32
SOMERSET       NOT AVBL
MIDDLESBORO    CLEAR     40  12  31 SW8G16    29.70R WCI  35
MONTICELLO     PTCLDY    43  16  33 SW24G33   29.68R
$$





USA.gov is the U.S. government's official web portal to all federal, state and local government web resources and services.